Printer-friendly version

IAU Minor Planet Center

Minor Planet Center

MPEC 2000-L14: 2000 LK

The following Minor Planet Electronic Circular may be linked-to from your own Web pages, but must not otherwise be redistributed electronically.


Read MPEC 2000-L13 Read MPEC 2000-L15


M.P.E.C. 2000-L14                                Issued 2000 June 3, 18:40 UT

     The Minor Planet Electronic Circulars contain information on unusual
         minor planets and routine data on comets.  They are published
   on behalf of Commission 20 of the International Astronomical Union by the
          Minor Planet Center, Smithsonian Astrophysical Observatory,
                          Cambridge, MA 02138, U.S.A.

             Prepared using the Tamkin Foundation Computer Network

             BMARSDEN@CFA.HARVARD.EDU or GWILLIAMS@CFA.HARVARD.EDU
          URL http://cfa-www.harvard.edu/iau/mpc.html  ISSN 1523-6714

                                    2000 LK

Observations:
     K00L00K* C2000 06 01.28704 15 18 51.87 +57 49 59.2          17.5 R      699
     K00L00K  C2000 06 01.30813 15 18 21.40 +57 54 10.5                      699
     K00L00K  C2000 06 01.32922 15 17 50.97 +57 58 18.7                      699
     K00L00K  C2000 06 01.35032 15 17 20.33 +58 02 27.5                      699
     K00L00K  C2000 06 02.05127 14 59 19.98 +60 16 54.0          17.7 R      118
     K00L00K  C2000 06 02.05204 14 59 18.81 +60 17 02.6          17.5 R      118
     K00L00K  C2000 06 02.05509 14 59 13.78 +60 17 36.7                      118
     K00L00K  C2000 06 02.05670 14 59 10.97 +60 17 54.7                      118
     K00L00K  C2000 06 02.84422 14 35 46.34 +62 37 28.2                      557
     K00L00K  C2000 06 02.84491 14 35 44.94 +62 37 34.4                      557
     K00L00K  C2000 06 02.84561 14 35 43.64 +62 37 41.1                      557
     K00L00K  C2000 06 02.84630 14 35 42.43 +62 37 47.6                      557
     K00L00K  C2000 06 02.85062 14 35 33.83 +62 38 32.8          17.3 R      046
     K00L00K  C2000 06 02.85149 14 35 32.44 +62 38 41.6                      046
     K00L00K  C2000 06 02.85226 14 35 30.63 +62 38 49.7                      046
     K00L00K  C2000 06 02.85502 14 35 25.49 +62 39 16.8                      046
     K00L00K  C2000 06 02.85622 14 35 23.26 +62 39 28.6          17.2 R      046
     K00L00K  C2000 06 02.85711 14 35 21.35 +62 39 37.0                      046
     K00L00K  C2000 06 02.89777 14 34 01.45 +62 46 23.0          17.1 R      118
     K00L00K  C2000 06 02.90061 14 33 55.78 +62 46 50.9                      118
     K00L00K  C2000 06 02.90273 14 33 51.52 +62 47 12.4                      118
     K00L00K  C2000 06 02.95554 14 32 07.49 +62 55 52.9                      587
     K00L00K FC2000 06 02.95781 14 32 02.97 +62 56 15.8                      587
     K00L00K  C2000 06 02.96265 14 31 53.45 +62 57 04.3                      587
     K00L00K  C2000 06 02.96632 14 31 46.01 +62 57 37.0          17.2 R      540
     K00L00K  C2000 06 02.96881 14 31 41.03 +62 58 01.3                      540
     K00L00K  C2000 06 02.97101 14 31 36.68 +62 58 22.6                      540
     K00L00K  C2000 06 03.04542 14 29 08.12 +63 10 20.6                      611
     K00L00K  C2000 06 03.04682 14 29 05.09 +63 10 34.4                      611
     K00L00K  C2000 06 03.04835 14 29 02.28 +63 10 47.8                      611

Observer details:
046 Klet.  Observers J. Ticha, M. Tichy.  0.57-m f/5.2 reflector + CCD.
118 Modra.  Observers L. Kornos, P. Koleny, S. Gajdos.  0.6-m f/5.5 reflector
    + CCD.
540 Linz.  Observers E. Meyer, E. Obermair, M. Stoll.  0.6-m f/3.0 reflector
    + CCD.
557 Ondrejov.  Observers P. Pravec, P. Kusnirak.  0.65-m f/3.6 reflector + CCD.
587 Sormano.  Observers F. Manca, G. Ventre.  0.5-m reflector + CCD.
611 Starkenburg.  Observers M. Busch, S. Kluegl, R. Stoss, E. Schwab.  0.45-m
    f/4.4 reflector + CCD.
699 Lowell Observatory-LONEOS.  Observer M. E. Van Ness.  Measurer B. W. Koehn.
    0.59-m LONEOS Schmidt + CCD.

Orbital elements:
2000 LK
Epoch 2000 May 16.0 TT = JDT 2451680.5                  Williams
M 345.64075              (2000.0)            P               Q
n   0.26231668     Peri.  192.16107     +0.82799718     -0.54826645
a   2.4168634      Node   202.34454     +0.53689317     +0.83566108
e   0.9525347      Incl.   18.01543     +0.16176030     +0.03277903
P   3.76           H   18.0           G   0.15
From 30 observations 2000 June 1-3.

Ephemeris:
2000 LK                  a,e,i = 2.42, 0.95, 18                  q = 0.1147
Date    TT    R. A. (2000) Decl.     Delta      r     Elong.  Phase     V
2000 05 26    16 44.99   +36 41.8    0.300    1.198   121.7    46.0    17.5
2000 05 31    15 45.63   +53 26.2    0.260    1.106   103.9    62.9    17.5
2000 06 05    13 12.77   +67 15.9    0.257    1.009    81.4    84.0    18.0
2000 06 10    09 46.05   +65 02.8    0.290    0.906    60.0   103.9    18.9
2000 06 15    08 11.14   +55 12.2    0.350    0.796    43.0   119.6    20.0
2000 06 20    07 29.17   +46 29.3    0.429    0.678    29.8   131.9    21.2
2000 06 25    07 04.95   +39 34.8    0.525    0.549    19.2   142.5    22.5
2000 06 30    06 48.43   +33 49.9    0.642    0.405    11.0   151.5    23.8
2000 07 05    06 38.14   +28 27.4    0.803    0.242     7.2   148.2    22.5
2000 07 10    06 53.84   +22 10.2    1.069    0.115     5.6    60.1    15.6
2000 07 15    07 52.86   +17 24.5    1.254    0.259     5.3    21.3    16.6
2000 07 20    08 38.01   +14 16.4    1.366    0.421    11.3    28.4    18.0
2000 07 25    09 13.07   +11 40.2    1.474    0.563    15.3    28.5    18.9
2000 07 30    09 41.63   +09 24.5    1.583    0.690    17.9    26.8    19.4
2000 08 04    10 05.62   +07 24.9    1.693    0.808    19.3    24.5    19.8
2000 08 09    10 26.23   +05 38.4    1.803    0.917    19.9    22.1    20.2
2000 08 14    10 44.27   +04 02.8    1.912    1.019    19.8    19.7    20.4
2000 08 19    11 00.31   +02 36.2    2.020    1.115    19.2    17.4    20.7
2000 08 24    11 14.76   +01 17.1    2.125    1.207    18.3    15.2    20.9
2000 08 29    11 27.93   +00 04.3    2.227    1.295    16.9    13.1    21.1
2000 09 03    11 40.06   -01 03.1    2.326    1.379    15.3    11.1    21.2
2000 09 08    11 51.32   -02 05.9    2.421    1.460    13.5     9.3    21.4
2000 09 13    12 01.84   -03 04.7    2.511    1.538    11.4     7.5    21.5
2000 09 18    12 11.74   -04 00.0    2.597    1.613     9.2     5.7    21.6
2000 09 23    12 21.10   -04 52.1    2.678    1.686     6.9     4.1    21.6
2000 09 28    12 30.00   -05 41.5    2.754    1.757     4.6     2.6    21.7
2000 10 03    12 38.48   -06 28.3    2.824    1.825     2.5     1.4    21.7

Gareth V. Williams           (C) Copyright 2000 MPC           M.P.E.C. 2000-L14

Read MPEC 2000-L13 Read MPEC 2000-L15


Our Web policy. Index to the CBAT/MPC/ICQ pages.


Valid HTML 4.01!